Погода в Сендае

Япония     38°12′29″N   140°53′59″E
темп.,
°C
ветер,
м/с
пор.,
м/с
влажн.,
%
обл.,
%
осадки,
мм/ч
давл.,
гПа
погр.,
м
28 сентября, вт
вт2800:00+18всв237423 0.2 1020355
03:00+17с3382100 0.3 1020170
06:00+16ссз3384100 0.1 1020169
09:00+19с2171100 0.1 1020375
12:00+21вюв336333 0.0 1018814
15:00+21вюв43605 0.0 1018996
18:00+20вюв34752 0.0 1019578
21:00+19юв457925 0.4 1019446
29 сентября, ср
ср2900:00+19ююв248013 0.5 1018286
03:00+18ю12829 0.8 1018230
06:00+18ююв128180 0.1 1018285
09:00+20ююв2375100 0.3 1018507
12:00+21юв456734 0.1 1016777
15:00+21юв45665 0.1 1015798
18:00+21юв477462 0.0 1015733
21:00+21ююв687647 0.0 1015756
30 сентября, чт
чт3000:00+20ю59805 0.0 1014613
03:00+19ююз36821 0.0 1012355
06:00+19юз2482100 0.0 1012242
09:00+21ююз3672100 0.0 1011513
12:00+23ююв5670100 0.0 1009667
15:00+24ююв7670100 0.0 1008405
18:00+22ю5780100 0.0 1009183
21:00+22зюз2379100 0.0 100975
1 октября, пт
пт100:00+21ссз2386100 0.0 1009122
03:00+20с2388100 0.0 1009171
06:00+20с3488100 0.0 1010183
09:00+21ююв4586100 0.2 1010591
12:00+19ююв4792100 6.1 1010563
15:00+18юв7893100 13.6 1009611
18:00+17вюв4592100 5.3 1010494
21:00+17в5688100 6.8 1010649
2 октября, сб
сб200:00+16св3590100 0.8 1008528
03:00+16ссз6891100 1.7 1006446
06:00+15ссз5992100 2.6 1006540
09:00+18с5986100 5.8 1006489
12:00+23ссз59655 0.0 10061088
15:00+24сз69580 0.4 10071110
18:00+21зсз59650 0.0 1011411
21:00+20зсз511640 0.0 1013658